Regional Weather Roundup
Issued by NWS Albany, NY

Home | Current Version | Previous Version | Text Only | Print | Product List | Glossary On
Versions: 1 2 3 4 5 6 7 8 9 10 11 12 13 14 15 16 17 18 19 20 21 22 23 24 25 26 27 28 29 30 31 32 33 34 35 36 37 38 39 40 41 42 43 44 45 46 47 48 49 50
000
ASUS41 KALY 010210
RWRALY

NEW YORK STATE HOURLY WEATHER ROUNDUP
NATIONAL WEATHER SERVICE ALBANY NY
1000 PM EDT TUE MAR 31 2015

NOTE: "FAIR" INDICATES FEW OR NO CLOUDS BELOW 12,000 FEET WITH NO
SIGNIFICANT WEATHER AND/OR NO OBSTRUCTIONS TO VISIBILITY.

NYZ032-033-038>043-046>054-057>066-NYZ062>081-010300-
EAST


CITY           SKY/WX    TMP DP  RH WIND       PRES   REMARKS
ALBANY         PTCLDY    38  18  44 NW10      29.80R WCI  31
GLENS FALLS    CLEAR     32  12  43 N7        29.82R WCI  26
POUGHKEEPSIE   LGT RAIN  34  31  88 W6        29.81R VSB 1/4 WCI  29
NEWBURGH       FOG       32  32 100 VRB5      29.80R VSB 1/8 WCI  27
MONTGOMERY     CLEAR     29  28  96 S6        29.80R FOG     WCI  23
WHITE PLAINS   CLOUDY    34  32  92 NW9       29.78R WCI  27
ISLIP          CLOUDY    36  33  89 N3        29.76F
NEW YORK CITY  CLOUDY    36  33  89 CALM      29.79S
CENTRAL PARK   CLOUDY    36  33  89 N9        29.82R WCI  29
$$

NYZ005>009-017-018-044>046-055-056-010300-
CENTRAL


CITY           SKY/WX    TMP DP  RH WIND       PRES   REMARKS
FULTON         CLEAR     27  18  69 NW5       29.90R WCI  22
SYRACUSE       PTCLDY    29  16  58 W5        29.89R WCI  24
ROME           CLEAR     27  18  69 NW6       29.88R WCI  20
ELMIRA         CLOUDY    31  28  89 W5        29.88R WCI  26
BINGHAMTON     PTCLDY    28  24  85 NW5       29.82R WCI  23
MONTICELLO     CLEAR     27  25  93 W3        29.79R
$$

NYZ026>034-041>043-010300-
NORTH


CITY           SKY/WX    TMP DP  RH WIND       PRES   REMARKS
WATERTOWN      CLEAR     25  18  74 CALM      29.90R
FORT DRUM      NOT AVBL
MASSENA        CLEAR     23  14  68 CALM      29.91R
SARANAC LAKE   CLEAR     22   3  44 CALM      29.79R
PLATTSBURGH    CLEAR     28   8  43 W3        29.87R
$$

NYZ001>004-010>016-019>021-010300-
WEST


CITY           SKY/WX    TMP DP  RH WIND       PRES   REMARKS
NIAGARA FALLS  MOCLDY    27  21  78 SW5       29.92R WCI  22
BUFFALO        MOCLDY    32  26  78 SW5       29.92R WCI  27
DUNKIRK        CLOUDY    34  27  75 SW8       29.94R WCI  27
JAMESTOWN      CLOUDY    30  21  69 W9        29.90R WCI  22
WELLSVILLE     MOCLDY    29  21  72 NW7       29.85R WCI  22
ROCHESTER      PTCLDY    29  23  78 W5        29.90R WCI  24
PENN YAN       PTCLDY    29  23  78 SW3       29.88R
$$

             KEY
       WCI = WIND CHILL INDEX
       VSB = VISIBILITY
       HX  = HEAT INDEX
$$


USA.gov is the U.S. government's official web portal to all federal, state and local government web resources and services.